EW7144 Weather Reports


time (UTC)temp
C
wind
direction
speed
KPH
gust
KPH
rain 1hr
cm
rain 24hr
cm
rain mn
cm
humidity
%
barometer
mb
20260506153406 16 350 6.4 19.3 0.18 0.23 0.18 90 1022.6
20260506152906 16 358 3.2 19.3 0.15 0.20 0.15 90 1022.6
20260506152405 16 6 11.3 27.4 0.15 0.18 0.15 90 1022.7
20260506151905 16 13 11.3 20.9 0.10 0.15 0.10 90 1022.8
20260506150905 16 12 9.7 19.3 0.03 0.05 0.03 90 1022.8
20260506150405 16 13 4.8 16.1 0.03 0.05 0.03 90 1022.9
20260506145906 16 18 8.0 20.9 0.00 0.05 0.00 90 1023.1
20260506145406 16 25 11.3 19.3 0.00 0.05 0.00 90 1023.2
20260506144906 16 23 3.2 14.5 0.00 0.05 0.00 89 1023.3
20260506144405 16 4 4.8 12.9 0.00 0.05 0.00 89 1023.4
20260506143905 16 6 11.3 16.1 0.00 0.05 0.00 89 1023.5
20260506143406 16 0 3.2 8.0 0.00 0.05 0.00 89 1023.6
20260506142905 16 19 6.4 14.5 0.00 0.05 0.00 89 1023.6
20260506142406 16 4 6.4 14.5 0.00 0.05 0.00 89 1023.8
20260506141906 16 18 8.0 19.3 0.00 0.05 0.00 89 1023.8
20260506141406 16 14 6.4 12.9 0.00 0.05 0.00 89 1023.9
20260506140906 16 21 6.4 19.3 0.00 0.05 0.00 89 1023.9
20260506135905 16 25 4.8 20.9 0.00 0.05 0.00 89 1024.0
20260506135406 16 29 8.0 16.1 0.00 0.05 0.00 89 1024.1
20260506134906 16 7 8.0 14.5 0.00 0.05 0.00 89 1024.1
20260506133406 16 4 1.6 8.0 0.00 0.05 0.00 89 1024.2
20260506132906 16 5 4.8 9.7 0.00 0.05 0.00 89 1024.2
20260506132406 16 8 3.2 12.9 0.00 0.05 0.00 89 1024.3
20260506131906 16 14 4.8 14.5 0.00 0.05 0.00 89 1024.3
20260506130906 16 358 1.6 3.2 0.00 0.05 0.00 89 1024.4
20260506130405 16 16 0.0 1.6 0.00 0.05 0.00 89 1024.4
20260506125905 16 16 1.6 3.2 0.03 0.05 0.00 89 1024.4
20260506125405 16 1 3.2 4.8 0.03 0.05 0.00 89 1024.5
20260506124405 16 338 0.0 1.6 0.03 0.05 0.00 89 1024.5
20260506123906 16 349 0.0 1.6 0.03 0.05 0.00 89 1024.5
20260506123406 16 346 1.6 4.8 0.03 0.05 0.00 89 1024.6
20260506122406 16 345 3.2 4.8 0.03 0.05 0.00 89 1024.6
20260506121905 16 16 3.2 4.8 0.03 0.05 0.00 89 1024.7
20260506121406 16 349 0.0 4.8 0.03 0.05 0.00 89 1024.7
20260506120905 16 0 4.8 8.0 0.03 0.05 0.00 90 1024.7
20260506120405 16 13 4.8 11.3 0.03 0.05 0.00 90 1024.7
20260506115405 16 356 1.6 14.5 0.00 0.03 0.03 90 1024.7
20260506114906 16 24 1.6 4.8 0.00 0.03 0.03 90 1024.7
20260506114405 16 22 1.6 4.8 0.00 0.03 0.03 90 1024.8
20260506113905 16 0 3.2 4.8 0.00 0.03 0.03 90 1024.8
20260506113406 16 354 1.6 8.0 0.00 0.03 0.03 90 1024.9
20260506112405 16 5 1.6 4.8 0.00 0.03 0.03 90 1025.0
20260506111905 16 355 3.2 4.8 0.00 0.03 0.03 90 1025.0
20260506111407 16 8 1.6 4.8 0.00 0.03 0.03 90 1025.0
20260506110906 16 9 1.6 3.2 0.00 0.03 0.03 89 1025.0
20260506110406 16 18 0.0 0.0 0.00 0.03 0.03 89 1025.1
20260506105407 16 18 0.0 3.2 0.00 0.03 0.03 89 1025.1
20260506104907 16 10 0.0 1.6 0.00 0.03 0.03 89 1025.2
20260506104406 16 10 1.6 4.8 0.00 0.03 0.03 89 1025.2
20260506103907 16 4 0.0 3.2 0.00 0.03 0.03 89 1025.2
20260506103405 16 4 0.0 1.6 0.00 0.03 0.03 89 1025.2
20260506102907 16 4 0.0 4.8 0.00 0.03 0.03 89 1025.3
20260506102406 16 356 0.0 4.8 0.00 0.03 0.03 89 1025.3
20260506101908 16 352 0.0 3.2 0.00 0.03 0.03 89 1025.3
20260506100906 16 357 0.0 4.8 0.00 0.03 0.03 89 1025.3
20260506095907 16 1 3.2 11.3 0.00 0.03 0.03 90 1025.2
20260506095407 16 22 6.4 9.7 0.00 0.03 0.03 90 1025.3
20260506094906 16 3 1.6 8.0 0.00 0.03 0.03 90 1025.2
20260506094406 16 356 1.6 4.8 0.00 0.03 0.03 90 1025.3
20260506093906 16 18 3.2 4.8 0.00 0.03 0.03 90 1025.2
20260506093408 16 9 1.6 4.8 0.00 0.03 0.03 90 1025.2
20260506092906 16 2 1.6 11.3 0.00 0.03 0.03 90 1025.2
20260506092406 16 28 1.6 8.0 0.00 0.03 0.03 90 1025.2
20260506091907 16 33 1.6 4.8 0.00 0.03 0.03 90 1025.2
20260506091406 16 350 1.6 4.8 0.00 0.03 0.03 90 1025.3
20260506090905 16 334 0.0 3.2 0.00 0.03 0.03 90 1025.2
20260506090405 16 330 0.0 3.2 0.00 0.03 0.03 89 1025.3
20260506085905 16 17 1.6 3.2 0.00 0.03 0.03 89 1025.2
20260506085405 16 17 1.6 1.6 0.00 0.03 0.03 89 1025.2
20260506084406 16 18 1.6 1.6 0.00 0.03 0.03 89 1025.2
20260506083907 16 18 3.2 4.8 0.00 0.03 0.03 89 1025.2
20260506083407 16 353 1.6 4.8 0.00 0.03 0.03 89 1025.2
20260506082907 16 12 3.2 4.8 0.00 0.03 0.03 89 1025.2
20260506082406 16 23 3.2 4.8 0.00 0.03 0.03 89 1025.3
20260506081906 16 355 4.8 11.3 0.00 0.03 0.03 89 1025.3
20260506080906 16 5 4.8 12.9 0.00 0.03 0.03 89 1025.4
20260506080406 16 13 4.8 12.9 0.00 0.03 0.03 89 1025.3
20260506073408 16 2 1.6 8.0 0.00 0.03 0.03 90 1025.4
20260506072906 16 8 6.4 16.1 0.00 0.03 0.03 90 1025.5
20260506071907 16 349 4.8 12.9 0.00 0.03 0.03 90 1025.4
20260506071406 16 1 3.2 8.0 0.00 0.03 0.03 90 1025.5
20260506070906 16 16 1.6 11.3 0.00 0.03 0.03 90 1025.5
20260506062406 16 16 1.6 4.8 0.00 0.03 0.03 89 1025.4
20260506061905 16 0 3.2 8.0 0.00 0.03 0.03 89 1025.4
20260506061406 16 358 3.2 9.7 0.00 0.03 0.03 89 1025.5
20260506060405 16 25 1.6 8.0 0.00 0.03 0.03 89 1025.5
20260506051405 17 3 3.2 4.8 0.00 0.03 0.03 88 1025.5
20260506050905 17 355 3.2 12.9 0.00 0.03 0.03 88 1025.5
20260506050406 17 347 4.8 12.9 0.00 0.03 0.03 88 1025.5
20260506044905 17 352 4.8 14.5 0.00 0.03 0.03 88 1025.5
20260506044406 17 356 4.8 11.3 0.00 0.03 0.03 88 1025.5
20260506043905 17 352 4.8 14.5 0.00 0.03 0.03 88 1025.6
20260506042905 17 342 6.4 14.5 0.00 0.03 0.03 87 1025.6
20260506042405 17 341 4.8 11.3 0.00 0.03 0.03 87 1025.6
20260506041405 17 331 3.2 9.7 0.00 0.03 0.03 88 1025.5
20260506040905 17 348 4.8 14.5 0.00 0.03 0.03 88 1025.5
20260506040406 17 350 4.8 12.9 0.00 0.03 0.03 88 1025.5
20260506035906 17 0 6.4 16.1 0.00 0.03 0.03 88 1025.5
20260506035405 17 348 9.7 19.3 0.00 0.03 0.03 88 1025.5
20260506034905 17 350 3.2 14.5 0.00 0.03 0.03 88 1025.6
20260506034405 17 352 8.0 19.3 0.00 0.03 0.03 88 1025.6
20260506033905 17 346 9.7 16.1 0.00 0.03 0.03 88 1025.6
20260506033405 17 357 4.8 14.5 0.00 0.03 0.03 88 1025.6
20260506032405 17 353 4.8 14.5 0.00 0.03 0.03 88 1025.7
20260506031906 17 336 8.0 16.1 0.00 0.03 0.03 88 1025.7
20260506031405 17 349 4.8 12.9 0.00 0.03 0.03 88 1025.7
20260506030406 17 325 4.8 14.5 0.00 0.03 0.03 88 1025.8
20260506025905 17 349 4.8 8.0 0.00 0.03 0.03 87 1025.8
20260506025405 17 347 3.2 9.7 0.00 0.03 0.03 87 1025.7
20260506024905 17 359 4.8 12.9 0.00 0.03 0.03 87 1025.7
20260506024405 17 327 1.6 12.9 0.00 0.03 0.03 87 1025.7
20260506023905 17 356 1.6 4.8 0.00 0.03 0.03 87 1025.7
20260506023405 17 346 1.6 4.8 0.00 0.03 0.03 87 1025.8
20260506022906 17 341 0.0 1.6 0.00 0.03 0.03 87 1025.7
20260506022405 17 351 1.6 3.2 0.00 0.03 0.03 87 1025.8
20260506021905 17 317 1.6 4.8 0.00 0.03 0.03 87 1025.8
20260506021406 17 353 1.6 4.8 0.00 0.03 0.03 87 1025.8
20260506020905 17 358 1.6 4.8 0.00 0.03 0.03 86 1025.8
20260506020405 17 353 3.2 4.8 0.00 0.03 0.03 86 1025.9
20260506015905 17 340 3.2 4.8 0.00 0.03 0.03 86 1025.9
20260506015405 17 339 1.6 4.8 0.00 0.03 0.03 85 1025.9
20260506014906 17 338 1.6 4.8 0.00 0.03 0.03 84 1025.9
20260506014405 18 332 1.6 8.0 0.00 0.03 0.03 84 1026.0
20260506013905 18 306 1.6 4.8 0.00 0.03 0.03 84 1026.0
20260506013405 18 275 1.6 4.8 0.00 0.03 0.03 83 1026.1
20260506012905 18 206 1.6 4.8 0.00 0.03 0.03 84 1026.1
20260506012405 18 292 1.6 4.8 0.00 0.03 0.03 84 1026.2
20260506011905 18 329 1.6 4.8 0.00 0.03 0.03 84 1026.2
20260506010405 17 237 1.6 3.2 0.00 0.03 0.03 85 1026.3
20260506005905 17 359 3.2 4.8 0.00 0.03 0.03 84 1026.4
20260506005406 17 353 1.6 4.8 0.00 0.03 0.03 84 1026.5
20260506004910 17 318 3.2 8.0 0.00 0.03 0.03 84 1026.5
20260506004406 17 359 1.6 8.0 0.00 0.03 0.03 84 1026.6
20260506003906 17 320 3.2 4.8 0.00 0.03 0.03 84 1026.7
20260506003407 17 294 1.6 4.8 0.00 0.03 0.03 84 1026.7
20260506002907 17 302 1.6 3.2 0.00 0.03 0.03 84 1026.7
20260506002406 17 354 1.6 4.8 0.00 0.03 0.03 84 1026.8
20260506001407 17 355 1.6 3.2 0.00 0.03 0.03 83 1026.9
20260506000905 17 359 1.6 3.2 0.00 0.03 0.03 82 1026.9
20260506000406 18 322 1.6 4.8 0.00 0.03 0.03 82 1027.0
20260505235905 17 227 0.0 3.2 0.00 0.03 0.03 83 1027.0
20260505235406 17 218 1.6 3.2 0.00 0.03 0.03 82 1027.1
20260505234406 17 219 1.6 3.2 0.00 0.03 0.03 83 1027.2
20260505233906 17 219 0.0 3.2 0.00 0.03 0.03 83 1027.2
20260505233406 17 219 0.0 3.2 0.00 0.03 0.03 83 1027.3
20260505232905 17 219 1.6 3.2 0.00 0.03 0.03 83 1027.3
20260505232405 17 218 1.6 3.2 0.00 0.03 0.03 84 1027.3
20260505230905 16 136 0.0 1.6 0.03 0.03 0.03 86 1027.4
20260505230405 16 135 0.0 1.6 0.03 0.03 0.03 86 1027.4
20260505225906 16 118 0.0 1.6 0.03 0.03 0.03 86 1027.5
20260505225406 16 118 0.0 3.2 0.03 0.03 0.03 87 1027.4
20260505224905 16 118 0.0 1.6 0.03 0.03 0.03 88 1027.4
20260505224405 15 116 0.0 1.6 0.03 0.03 0.03 88 1027.4
20260505223906 15 115 0.0 1.6 0.03 0.03 0.03 88 1027.4
20260505223405 15 116 0.0 0.0 0.03 0.03 0.03 88 1027.4
20260505222905 15 116 0.0 1.6 0.03 0.03 0.03 88 1027.5
20260505221905 14 116 0.0 3.2 0.03 0.03 0.03 87 1027.5
20260505221405 14 116 0.0 3.2 0.03 0.03 0.03 87 1027.6
20260505220905 14 129 0.0 3.2 0.00 0.00 0.00 87 1027.6
20260505215905 13 103 3.2 4.8 0.00 0.00 0.00 86 1027.7
20260505215405 13 104 1.6 3.2 0.00 0.00 0.00 86 1027.7
20260505214905 13 122 3.2 9.7 0.00 0.00 0.00 85 1027.7
20260505214405 14 91 1.6 4.8 0.00 0.00 0.00 85 1027.7
20260505213406 13 79 1.6 9.7 0.00 0.00 0.00 84 1027.7
20260505212905 13 94 3.2 9.7 0.00 0.00 0.00 84 1027.7
20260505212405 13 97 3.2 11.3 0.00 0.00 0.00 84 1027.7
20260505211905 13 102 9.7 14.5 0.00 0.00 0.00 84 1027.7
20260505211406 13 101 8.0 12.9 0.00 0.00 0.00 84 1027.6
20260505210406 14 92 4.8 11.3 0.00 0.00 0.00 84 1027.6
20260505205907 14 106 6.4 11.3 0.00 0.00 0.00 84 1027.6
20260505205406 14 97 8.0 12.9 0.00 0.00 0.00 83 1027.6
20260505204906 14 107 8.0 12.9 0.00 0.00 0.00 83 1027.5
20260505204406 14 103 8.0 14.5 0.00 0.00 0.00 84 1027.5
20260505203907 14 94 6.4 12.9 0.00 0.00 0.00 84 1027.5
20260505203406 13 104 9.7 12.9 0.00 0.00 0.00 84 1027.5
20260505202906 13 97 8.0 14.5 0.00 0.00 0.00 84 1027.4
20260505202407 13 105 8.0 12.9 0.00 0.00 0.00 84 1027.4
20260505201906 13 106 9.7 14.5 0.00 0.00 0.00 84 1027.3
20260505201406 13 107 11.3 14.5 0.00 0.00 0.00 84 1027.3
20260505200905 13 96 11.3 16.1 0.00 0.00 0.00 84 1027.3
20260505200408 13 102 9.7 16.1 0.00 0.00 0.00 85 1027.2
20260505195406 13 101 11.3 16.1 0.00 0.00 0.00 84 1027.4
20260505194906 13 102 11.3 14.5 0.00 0.00 0.00 84 1027.4
20260505194407 13 103 11.3 14.5 0.00 0.00 0.00 84 1027.4
20260505193906 13 102 11.3 19.3 0.00 0.00 0.00 84 1027.4
20260505193406 13 100 11.3 19.3 0.00 0.00 0.00 84 1027.3
20260505192907 13 98 11.3 16.1 0.00 0.00 0.00 84 1027.3
20260505191906 13 100 9.7 19.3 0.00 0.00 0.00 84 1027.3
20260505191406 13 110 11.3 16.1 0.00 0.00 0.00 84 1027.3
20260505190908 13 103 11.3 19.3 0.00 0.00 0.00 83 1027.3
20260505185906 13 104 12.9 14.5 0.00 0.00 0.00 83 1027.4
20260505185406 13 101 11.3 14.5 0.00 0.00 0.00 83 1027.5
20260505184907 13 86 9.7 16.1 0.00 0.00 0.00 82 1027.5
20260505184406 13 90 8.0 14.5 0.00 0.00 0.00 82 1027.5
20260505183906 13 96 9.7 16.1 0.00 0.00 0.00 81 1027.5
20260505182906 13 99 11.3 16.1 0.00 0.00 0.00 81 1027.5
20260505181905 13 92 9.7 14.5 0.00 0.00 0.00 81 1027.5
20260505181408 13 94 8.0 12.9 0.00 0.00 0.00 81 1027.5
20260505180906 13 94 9.7 14.5 0.00 0.00 0.00 81 1027.5
20260505180406 12 94 11.3 14.5 0.00 0.00 0.00 82 1027.5
20260505175906 12 99 12.9 16.1 0.00 0.00 0.00 82 1027.6
20260505175407 12 101 9.7 19.3 0.00 0.00 0.00 81 1027.7
20260505174906 12 95 11.3 19.3 0.00 0.00 0.00 81 1027.7
20260505174406 12 96 11.3 16.1 0.00 0.00 0.00 82 1027.6
20260505172906 12 103 11.3 14.5 0.00 0.00 0.00 84 1027.8
20260505172407 12 62 0.0 4.8 0.00 0.00 0.00 84 1027.9
20260505171906 12 108 0.0 4.8 0.00 0.00 0.00 84 1027.9
20260505171406 12 79 3.2 4.8 0.00 0.00 0.00 83 1027.9
20260505170907 12 5 1.6 9.7 0.00 0.00 0.00 82 1028.1
20260505170405 12 101 11.3 20.9 0.00 0.00 0.00 82 1027.9
20260505165906 12 93 11.3 19.3 0.00 0.00 0.00 82 1027.7
20260505164906 12 101 14.5 19.3 0.00 0.00 0.00 82 1027.9
20260505164405 12 93 12.9 16.1 0.00 0.00 0.00 82 1028.0
20260505163906 12 94 11.3 16.1 0.00 0.00 0.00 82 1028.0
20260505163406 12 94 11.3 14.5 0.00 0.00 0.00 83 1028.0
20260505162906 12 108 9.7 12.9 0.00 0.00 0.00 83 1028.1
20260505162407 12 106 3.2 11.3 0.00 0.00 0.00 83 1028.2
20260505161907 12 110 9.7 12.9 0.00 0.00 0.00 83 1028.2
20260505161406 12 103 3.2 4.8 0.00 0.00 0.00 83 1028.2
20260505160906 12 143 0.0 3.2 0.00 0.00 0.00 83 1028.3
20260505160406 13 181 1.6 8.0 0.00 0.00 0.00 82 1028.3